Wind_Speed
15 11 9 8 7 7 7 8 8 8 8 8 8 9 10 11 11 14 15 7 7 5 5 4 7 4 9 9 7 6 3 2 6 7 4 6 4 11 15 22 2 9 24 33 25
18 14 11 9 8 8 8 8 8 9 9 8 8 8 9 10 12 19 11 9 11 4 4 7 8 7 8 11 3 3 3 3 3 9 5 3 2 5 6 22 19 25 27 28 25
20 18 14 11 9 9 8 8 8 8 8 8 7 7 8 7 9 13 7 13 10 6 6 10 11 12 5 4 3 3 4 5 3 11 7 1 9 8 13 7 29 32 31 29 26
20 19 16 12 10 8 8 8 8 8 7 7 6 6 6 3 3 2 1 8 11 8 9 9 7 3 3 4 1 3 7 6 10 10 6 3 6 11 10 12 26 25 29 31 29
20 19 18 14 11 8 7 8 8 9 8 6 5 5 3 4 8 3 4 2 11 9 12 11 9 3 2 3 1 4 6 7 9 11 11 7 6 7 25 25 22 24 29 32 28
20 19 18 16 12 9 8 8 9 9 8 6 5 3 3 3 3 3 5 10 13 12 11 13 6 6 1 9 11 11 7 8 4 6 7 2 4 2 10 21 25 32 32 31 29
19 18 17 16 13 9 8 8 9 9 7 6 5 4 8 10 3 3 6 3 12 12 11 10 10 12 5 8 6 23 8 4 2 3 3 7 4 3 5 10 21 32 29 32 28
19 18 17 16 14 10 9 9 8 8 6 6 5 5 7 6 7 8 3 1 5 8 8 4 11 13 5 14 9 8 7 3 8 7 2 6 6 6 5 3 2 8 29 32 27
20 19 17 16 14 11 10 9 9 8 6 5 4 5 8 5 12 8 7 6 2 5 6 7 11 2 6 6 4 2 5 3 5 13 2 4 5 11 11 3 3 6 31 34 30
20 19 18 16 15 11 10 9 10 10 7 7 8 7 8 5 9 11 9 9 10 7 10 8 1 4 1 3 5 7 5 6 3 11 7 10 6 5 6 7 7 10 20 31 29
21 20 18 16 16 13 9 9 5 3 7 12 9 13 21 6 12 12 13 10 9 7 4 8 3 7 10 7 2 9 5 6 3 1 5 6 5 8 1 6 7 2 12 30 29
22 21 19 15 15 13 9 6 4 5 10 16 21 25 24 18 7 7 15 12 5 6 1 4 6 10 10 5 6 8 5 4 4 5 3 8 11 3 3 8 13 11 10 24 29
23 22 20 14 14 8 7 10 10 20 6 16 19 19 20 12 15 13 16 15 4 4 6 7 8 11 12 8 9 4 6 7 14 7 2 1 7 5 5 9 10 13 12 22 31
24 22 20 14 6 6 1 7 12 12 4 6 6 7 15 17 5 17 23 12 3 11 6 7 8 17 8 5 6 4 11 11 15 10 3 2 4 5 4 8 7 19 20 27 29
23 22 17 15 10 10 7 5 5 5 3 5 6 3 11 13 3 14 22 20 7 9 3 10 9 9 6 12 14 11 8 9 7 13 5 4 1 6 4 4 7 13 25 33 35
25 21 19 15 14 5 5 3 3 5 5 3 10 6 7 7 7 24 17 13 7 4 3 9 13 11 13 15 16 9 2 4 5 5 3 11 5 7 5 7 4 11 23 36 37
25 19 19 14 4 3 2 2 5 3 6 4 7 7 9 7 3 9 7 4 4 3 5 9 9 4 5 3 3 5 6 3 3 3 4 6 3 9 3 5 11 16 25 30 37
25 17 13 6 8 6 6 5 3 2 5 4 1 6 8 7 6 8 7 5 7 6 2 3 9 6 5 8 9 2 8 5 6 3 0 5 4 6 7 15 17 8 18 31 34
23 13 3 5 11 9 5 3 6 6 2 7 9 6 6 8 6 6 10 8 8 11 8 6 7 6 8 7 9 4 2 7 5 1 4 3 2 7 6 3 12 13 13 24 32
19 8 6 6 12 10 4 4 4 3 6 3 1 6 3 6 3 6 8 8 6 12 12 7 3 3 5 3 2 7 4 3 3 2 3 3 3 4 4 9 10 12 16 18 30
10 4 8 10 11 4 3 6 5 11 15 4 7 6 6 2 1 3 7 11 15 6 14 7 4 8 3 6 8 2 1 1 5 5 5 4 6 7 11 9 13 19 21 23 26
10 2 12 13 2 1 2 4 5 14 25 8 4 9 4 2 4 2 4 6 5 11 9 10 6 3 7 7 3 5 4 5 5 4 1 4 4 4 9 6 6 19 25 22 28
16 6 8 13 1 2 6 7 12 14 11 5 4 0 3 2 4 4 5 12 7 3 5 6 1 2 8 6 6 5 3 5 3 3 3 5 5 1 8 19 20 20 15 18 19
7 4 6 3 3 3 5 6 7 13 8 10 6 1 5 6 2 5 5 7 10 5 7 4 5 7 6 7 3 4 2 2 5 3 3 4 6 6 6 9 13 27 26 22 19
5 2 7 4 6 8 2 5 8 8 4 5 7 8 6 4 5 4 4 7 10 16 6 6 5 6 5 3 4 4 3 3 4 5 5 6 9 11 12 14 24 33 27 25 24
6 6 10 10 12 7 4 4 10 16 4 7 5 6 10 6 2 4 2 3 3 7 6 6 2 1 1 4 5 4 7 7 7 3 4 8 5 7 9 9 20 24 30 25 20
7 6 3 7 6 4 2 10 11 13 10 5 4 4 4 3 14 13 4 3 4 0 3 1 2 3 5 4 4 1 10 8 8 5 6 6 9 5 6 10 21 21 22 21 19
Wind_Direction
15 6 355 346 339 334 330 330 325 318 312 304 294 284 272 266 261 259 249 236 212 266 287 264 263 287 310 282 269 169 74 84 163 179 234 273 352 353 119 138 171 209 154 158 162
18 11 1 349 339 332 328 325 320 314 309 304 299 289 278 268 265 258 247 237 207 206 267 276 261 297 306 276 224 118 78 221 225 180 186 222 226 319 128 105 99 103 137 153 166
18 14 8 357 346 339 335 331 324 314 307 302 299 293 284 284 290 270 248 227 218 215 265 271 272 300 289 198 186 134 130 171 191 171 150 309 295 340 135 120 144 143 151 163 169
15 13 10 3 354 349 346 342 333 324 313 304 297 292 284 263 198 22 208 199 216 225 248 259 265 296 1 218 199 123 155 164 142 171 153 202 286 314 223 177 155 145 166 171 178
10 10 8 4 357 350 347 345 340 338 331 311 296 289 276 245 240 85 33 213 217 224 242 238 272 262 267 125 195 72 107 118 134 162 182 190 277 287 135 160 160 160 168 173 182
3 3 2 1 355 344 335 335 335 332 338 325 303 275 237 258 209 218 315 259 224 223 229 223 238 336 287 65 42 4 118 144 169 144 152 86 312 36 111 156 166 165 174 177 186
354 356 356 354 348 336 318 316 325 326 327 333 314 283 255 229 151 208 351 290 214 209 218 227 302 301 196 121 68 38 20 311 192 231 161 157 340 302 110 146 165 176 184 183 185
345 346 347 347 343 331 308 301 312 322 313 324 315 297 253 169 251 239 248 29 170 206 232 288 317 307 105 115 43 76 329 271 192 189 271 172 233 257 159 62 87 177 182 178 188
337 337 338 339 336 328 307 291 302 311 296 301 292 290 264 243 220 225 212 253 180 201 248 297 295 66 117 95 75 104 254 194 176 191 180 197 250 234 233 263 327 333 166 176 182
334 332 330 331 327 325 308 286 290 292 270 270 256 302 249 252 216 218 207 233 240 233 250 263 277 89 19 119 187 174 219 243 170 196 190 213 248 269 278 231 259 147 183 180 187
333 330 326 323 318 320 302 287 299 269 279 239 269 255 292 304 195 190 179 208 237 234 183 258 110 213 213 205 138 140 194 232 199 216 179 235 227 213 142 256 255 226 205 188 191
333 328 324 320 310 313 288 249 293 303 293 282 260 263 270 275 214 187 182 197 207 214 161 6 235 223 225 181 129 162 157 270 354 105 80 236 245 349 188 201 232 199 240 188 185
334 329 325 321 307 301 266 245 303 305 303 295 241 243 251 237 232 190 197 201 186 216 202 181 244 181 179 179 199 228 184 172 158 150 193 173 301 257 255 257 238 208 187 188 191
334 330 327 323 299 255 322 13 337 305 28 278 187 222 227 218 232 210 200 189 207 221 230 215 204 184 190 206 160 198 232 193 158 148 221 177 266 292 214 232 218 188 195 190 189
334 329 321 313 281 275 311 324 3 138 3 236 181 175 192 180 167 188 197 201 212 254 148 247 160 185 213 221 177 229 224 181 214 162 135 207 292 261 175 252 231 193 197 196 201
332 331 310 303 280 271 261 18 42 50 258 250 173 157 129 208 226 168 193 208 216 221 227 246 207 173 202 230 187 242 196 63 140 196 190 203 159 276 188 194 201 195 199 199 199
333 325 302 288 240 158 197 35 51 160 312 209 170 149 177 203 207 166 187 204 177 35 319 328 299 259 209 262 328 89 68 6 354 6 207 151 99 247 6 194 205 206 199 199 202
337 325 302 277 199 208 165 62 191 253 272 329 106 171 188 191 207 183 152 196 257 159 191 220 311 210 224 187 194 207 157 159 196 217 119 336 238 261 281 212 236 229 222 205 203
342 346 359 112 176 176 131 102 212 214 335 6 343 176 250 224 156 149 187 199 215 171 174 184 262 286 172 188 137 255 143 200 148 47 106 274 288 296 44 320 269 261 181 185 201
347 16 116 110 161 170 77 233 246 291 345 58 192 313 13 344 170 193 175 225 244 187 191 217 286 291 269 119 196 148 181 23 4 130 88 340 304 230 256 237 260 277 248 213 201
358 44 122 134 134 147 174 234 292 289 310 334 302 283 206 184 272 222 234 253 217 246 176 166 132 286 87 177 203 336 1 59 124 135 156 159 254 231 223 211 224 240 253 242 202
9 14 159 171 158 198 203 233 284 289 293 285 231 239 225 213 235 270 252 236 208 230 165 196 159 167 217 264 189 113 130 130 121 269 103 126 257 294 184 194 213 213 203 175 198
343 307 187 191 177 284 287 285 282 283 271 269 282 10 90 50 7 233 300 296 332 78 176 176 39 50 345 351 15 112 173 143 154 84 184 131 243 178 174 134 162 118 150 161 153
358 355 342 234 26 31 352 299 322 317 300 6 284 234 28 351 113 287 322 352 307 314 4 38 120 150 177 212 148 240 292 63 114 106 166 207 177 223 155 138 138 153 161 155 163
10 331 13 328 330 324 284 266 308 323 296 11 332 10 335 291 321 323 342 355 338 24 331 120 175 143 185 218 159 212 200 271 183 167 138 216 185 214 183 174 167 164 171 169 166
21 12 341 299 312 346 339 335 340 341 295 303 44 342 39 61 327 305 332 40 235 322 0 353 234 139 144 143 174 208 247 253 242 254 160 170 239 233 217 161 153 167 167 163 172
348 325 314 295 330 9 307 349 344 356 315 17 34 12 20 13 343 309 293 251 256 327 320 314 113 73 256 14 31 11 224 211 239 253 166 156 222 152 128 158 164 168 173 182 189
Height
1523 1521 1520 1519 1518 1517 1515 1514 1513 1512 1511 1510 1509 1509 1509 1509 1510 1510 1509 1513 1514 1515 1516 1516 1517 1520 1521 1520 1521 1519 1528 1531 1534 1537 1526 1522 1521 1519 1516 1520 1522 1522 1520 1528 1534
1524 1521 1519 1518 1517 1516 1515 1514 1512 1511 1510 1509 1508 1508 1508 1508 1508 1506 1509 1510 1512 1514 1515 1516 1516 1519 1520 1519 1517 1518 1529 1524 1520 1519 1523 1523 1524 1523 1524 1521 1526 1524 1528 1532 1535
1525 1522 1520 1518 1516 1515 1514 1513 1512 1510 1509 1508 1507 1507 1507 1507 1508 1503 1505 1507 1510 1512 1514 1515 1516 1519 1518 1516 1516 1517 1522 1521 1521 1521 1524 1523 1521 1522 1524 1524 1522 1524 1528 1532 1534
1525 1523 1520 1518 1516 1515 1514 1512 1511 1509 1508 1508 1507 1506 1506 1508 1511 1503 1504 1505 1508 1511 1512 1514 1516 1518 1517 1516 1515 1519 1519 1518 1521 1523 1524 1525 1523 1521 1522 1523 1523 1522 1526 1529 1533
1526 1523 1520 1518 1516 1514 1513 1512 1510 1508 1507 1507 1506 1506 1507 1508 1504 1503 1504 1506 1507 1509 1509 1512 1514 1515 1517 1515 1515 1517 1519 1519 1520 1521 1524 1524 1523 1522 1517 1521 1523 1524 1527 1529 1532
1526 1523 1520 1518 1516 1514 1512 1511 1510 1508 1507 1506 1506 1506 1507 1507 1502 1503 1504 1504 1505 1507 1509 1510 1511 1515 1515 1519 1520 1523 1521 1522 1523 1522 1522 1524 1523 1521 1524 1523 1524 1526 1528 1530 1531
1526 1523 1520 1518 1515 1513 1512 1511 1509 1508 1507 1506 1505 1505 1505 1501 1501 1502 1502 1501 1503 1506 1507 1510 1512 1514 1515 1522 1525 1528 1533 1530 1525 1523 1523 1523 1525 1523 1523 1524 1524 1526 1527 1529 1528
1525 1522 1519 1517 1514 1512 1511 1510 1508 1507 1506 1505 1505 1504 1500 1499 1501 1501 1502 1502 1503 1505 1507 1509 1511 1513 1511 1518 1525 1530 1536 1539 1525 1526 1524 1524 1533 1521 1521 1522 1523 1526 1527 1528 1528
1523 1520 1517 1515 1513 1511 1509 1508 1507 1506 1506 1505 1505 1504 1497 1496 1497 1498 1500 1501 1502 1505 1507 1508 1511 1512 1513 1520 1534 1539 1544 1533 1527 1524 1526 1526 1527 1518 1521 1522 1522 1524 1524 1526 1528
1520 1517 1515 1513 1510 1508 1507 1507 1506 1505 1505 1504 1504 1506 1495 1493 1494 1496 1498 1500 1502 1503 1506 1508 1509 1513 1514 1519 1534 1536 1540 1526 1526 1523 1524 1525 1523 1517 1516 1518 1521 1522 1527 1523 1523
1517 1514 1512 1510 1507 1506 1506 1506 1507 1506 1503 1499 1495 1494 1493 1490 1493 1494 1496 1499 1500 1502 1507 1505 1515 1521 1512 1507 1508 1515 1526 1525 1518 1516 1521 1521 1519 1512 1512 1515 1518 1520 1523 1522 1522
1514 1511 1508 1507 1504 1503 1502 1503 1502 1504 1497 1492 1490 1489 1489 1491 1494 1492 1494 1498 1498 1504 1503 1510 1517 1504 1500 1508 1508 1515 1519 1524 1518 1516 1526 1521 1513 1513 1509 1508 1510 1516 1519 1522 1521
1511 1508 1505 1503 1501 1500 1499 1500 1501 1500 1498 1482 1482 1484 1484 1488 1489 1489 1493 1494 1496 1501 1502 1513 1500 1496 1498 1506 1510 1511 1512 1517 1521 1517 1523 1523 1523 1516 1506 1506 1510 1512 1512 1517 1516
1509 1505 1502 1499 1501 1498 1497 1498 1498 1497 1508 1488 1479 1479 1481 1484 1484 1485 1489 1492 1494 1497 1497 1502 1490 1494 1501 1504 1508 1518 1491 1497 1505 1522 1537 1524 1540 1512 1507 1506 1507 1509 1508 1513 1514
1506 1502 1499 1497 1496 1496 1497 1496 1496 1496 1532 1475 1476 1474 1476 1480 1480 1480 1484 1487 1490 1490 1494 1499 1496 1499 1502 1492 1495 1499 1484 1491 1495 1516 1527 1528 1533 1507 1501 1507 1504 1507 1506 1508 1510
1501 1499 1495 1494 1493 1494 1494 1493 1495 1513 1524 1477 1470 1472 1476 1477 1476 1479 1482 1484 1483 1486 1485 1485 1483 1486 1485 1479 1485 1478 1484 1492 1504 1514 1532 1517 1524 1511 1503 1496 1497 1498 1498 1501 1506
1497 1494 1489 1490 1491 1491 1492 1494 1512 1524 1478 1474 1474 1471 1474 1478 1477 1479 1482 1486 1494 1500 1504 1489 1480 1475 1474 1479 1476 1478 1503 1533 1529 1532 1533 1518 1519 1508 1487 1485 1485 1488 1494 1497 1503
1492 1488 1485 1485 1487 1490 1492 1498 1517 1492 1484 1467 1469 1471 1479 1472 1477 1479 1483 1491 1483 1488 1502 1510 1509 1473 1466 1473 1484 1484 1498 1530 1536 1534 1528 1518 1523 1500 1477 1479 1480 1488 1489 1495 1500
1488 1485 1483 1484 1486 1489 1492 1513 1505 1491 1477 1479 1472 1479 1480 1468 1471 1477 1482 1484 1475 1478 1499 1510 1498 1461 1459 1462 1470 1482 1497 1485 1507 1509 1521 1526 1502 1487 1480 1482 1481 1483 1490 1491 1494
1487 1484 1485 1486 1486 1490 1495 1505 1492 1480 1479 1480 1490 1478 1481 1477 1476 1479 1482 1465 1467 1464 1466 1478 1494 1463 1460 1461 1464 1472 1472 1500 1513 1518 1533 1525 1512 1510 1490 1490 1486 1484 1482 1486 1490
1488 1486 1487 1488 1489 1492 1502 1498 1485 1479 1480 1480 1481 1485 1476 1474 1471 1474 1473 1460 1455 1454 1460 1467 1480 1476 1464 1471 1476 1478 1483 1485 1494 1509 1523 1543 1526 1489 1481 1480 1484 1484 1484 1482 1485
1490 1490 1488 1489 1492 1492 1495 1487 1481 1478 1476 1477 1471 1469 1465 1468 1472 1471 1467 1460 1451 1449 1462 1456 1477 1488 1475 1459 1457 1467 1477 1489 1512 1504 1512 1518 1513 1476 1471 1473 1476 1481 1485 1484 1487
1495 1491 1488 1489 1497 1495 1487 1484 1481 1475 1471 1470 1467 1462 1461 1466 1475 1465 1458 1448 1444 1445 1452 1450 1478 1499 1489 1473 1464 1469 1472 1481 1488 1499 1506 1517 1511 1475 1474 1470 1479 1478 1481 1485 1488
1499 1498 1489 1489 1491 1492 1492 1485 1481 1473 1467 1465 1463 1457 1459 1464 1464 1468 1461 1452 1448 1442 1443 1449 1468 1482 1501 1485 1473 1475 1465 1467 1483 1503 1503 1502 1491 1480 1474 1473 1472 1476 1481 1483 1485
1502 1502 1502 1502 1493 1493 1491 1485 1481 1476 1466 1464 1462 1463 1464 1466 1465 1466 1461 1456 1446 1446 1446 1450 1468 1465 1465 1463 1466 1468 1464 1467 1475 1477 1489 1484 1484 1473 1471 1468 1469 1472 1477 1479 1482
1505 1506 1504 1500 1496 1494 1488 1486 1484 1477 1474 1466 1470 1465 1466 1476 1475 1471 1463 1461 1461 1453 1454 1453 1464 1457 1465 1460 1462 1468 1464 1461 1464 1462 1468 1475 1481 1462 1464 1469 1470 1472 1474 1478 1481
1507 1507 1505 1500 1496 1497 1493 1491 1485 1482 1471 1468 1466 1465 1467 1467 1466 1463 1460 1458 1458 1459 1461 1463 1466 1476 1480 1470 1469 1482 1466 1462 1460 1456 1457 1481 1468 1459 1463 1466 1468 1471 1474 1476 1479